owner,sensor,date,latitude,longitude,vertical_datum,wind_speed,wind_to_direction,wind_speed_of_gust,qcFlag 
TCOON,ioos:station:TCOON:031:1,2017-09-01T00:00:00Z,28.4073,-96.7122,0.0,4.5,116.0,5.8,'11111222,11111222,11111222' 
TCOON,ioos:station:TCOON:031:1,2017-09-01T00:06:00Z,28.4073,-96.7122,0.0,3.9,117.0,5.1,'11111222,11111222,11111222' 
TCOON,ioos:station:TCOON:031:1,2017-09-01T00:12:00Z,28.4073,-96.7122,0.0,4.2,116.0,5.4,'11111222,11111222,11111222' 
TCOON,ioos:station:TCOON:031:1,2017-09-01T00:18:00Z,28.4073,-96.7122,0.0,4.2,116.0,5.4,'1111122,1111122,1111122' 
TCOON,ioos:station:TCOON:031:1,2017-09-01T00:24:00Z,28.4073,-96.7122,0.0,3.5,123.0,4.5,'11111222,11111222,11111222' 
TCOON,ioos:station:TCOON:031:1,2017-09-01T00:30:00Z,28.4073,-96.7122,0.0,3.1,126.0,4.3,'11111222,11111222,11111222' 
TCOON,ioos:station:TCOON:031:1,2017-09-01T00:36:00Z,28.4073,-96.7122,0.0,4.2,139.0,4.8,'11111222,11111222,11111222' 
TCOON,ioos:station:TCOON:031:1,2017-09-01T00:42:00Z,28.4073,-96.7122,0.0,3.6,138.0,4.8,'11111222,11111222,11111222' 
TCOON,ioos:station:TCOON:031:1,2017-09-01T00:48:00Z,28.4073,-96.7122,0.0,3.3,136.0,4.3,'11111222,11111222,11111222' 
TCOON,ioos:station:TCOON:031:1,2017-09-01T00:54:00Z,28.4073,-96.7122,0.0,3.6,132.0,4.7,'11111222,11111222,11111222' 
TCOON,ioos:station:TCOON:031:1,2017-09-01T01:00:00Z,28.4073,-96.7122,0.0,3.8,137.0,4.6,'11111222,11111222,11111222' 
TCOON,ioos:station:TCOON:031:1,2017-09-01T01:06:00Z,28.4073,-96.7122,0.0,4.0,134.0,4.5,'11111222,11111222,11111222' 
TCOON,ioos:station:TCOON:031:1,2017-09-01T01:12:00Z,28.4073,-96.7122,0.0,3.7,127.0,4.3,'11111222,11111222,11111222' 
TCOON,ioos:station:TCOON:031:1,2017-09-01T01:18:00Z,28.4073,-96.7122,0.0,3.7,127.0,4.3,'1111122,1111122,1111122' 
TCOON,ioos:station:TCOON:031:1,2017-09-01T01:24:00Z,28.4073,-96.7122,0.0,3.8,133.0,4.7,'11111222,11111222,11111222' 
TCOON,ioos:station:TCOON:031:1,2017-09-01T01:30:00Z,28.4073,-96.7122,0.0,3.4,138.0,4.2,'11111222,11111222,11111222' 
TCOON,ioos:station:TCOON:031:1,2017-09-01T01:36:00Z,28.4073,-96.7122,0.0,3.5,138.0,4.1,'11111222,11111222,11111222' 
TCOON,ioos:station:TCOON:031:1,2017-09-01T01:42:00Z,28.4073,-96.7122,0.0,3.2,140.0,3.9,'11111222,11111222,11111222' 
TCOON,ioos:station:TCOON:031:1,2017-09-01T01:48:00Z,28.4073,-96.7122,0.0,3.2,135.0,3.8,'11111222,11111222,11111222' 
TCOON,ioos:station:TCOON:031:1,2017-09-01T01:54:00Z,28.4073,-96.7122,0.0,3.1,136.0,3.8,'11111222,11111222,11111222' 
TCOON,ioos:station:TCOON:031:1,2017-09-01T02:00:00Z,28.4073,-96.7122,0.0,3.4,140.0,4.3,'11111222,11111222,11111222' 
TCOON,ioos:station:TCOON:031:1,2017-09-01T02:06:00Z,28.4073,-96.7122,0.0,3.2,142.0,4.0,'11111222,11111222,11111222' 
TCOON,ioos:station:TCOON:031:1,2017-09-01T02:12:00Z,28.4073,-96.7122,0.0,2.9,140.0,3.5,'11111222,11111222,11111222' 
TCOON,ioos:station:TCOON:031:1,2017-09-01T02:18:00Z,28.4073,-96.7122,0.0,2.9,140.0,3.5,'1111122,1111122,1111122' 
TCOON,ioos:station:TCOON:031:1,2017-09-01T02:24:00Z,28.4073,-96.7122,0.0,2.9,135.0,3.7,'11111222,11111222,11111222' 
TCOON,ioos:station:TCOON:031:1,2017-09-01T02:30:00Z,28.4073,-96.7122,0.0,3.0,135.0,3.9,'11111222,11111222,11111222' 
TCOON,ioos:station:TCOON:031:1,2017-09-01T02:36:00Z,28.4073,-96.7122,0.0,3.0,138.0,3.4,'11111222,11111222,11111222' 
TCOON,ioos:station:TCOON:031:1,2017-09-01T02:42:00Z,28.4073,-96.7122,0.0,2.8,139.0,3.2,'11111222,11111222,11111222' 
TCOON,ioos:station:TCOON:031:1,2017-09-01T02:48:00Z,28.4073,-96.7122,0.0,2.5,136.0,3.3,'11111222,11111222,11111222' 
TCOON,ioos:station:TCOON:031:1,2017-09-01T02:54:00Z,28.4073,-96.7122,0.0,2.7,139.0,3.0,'11111222,11111222,11111222' 
TCOON,ioos:station:TCOON:031:1,2017-09-01T03:00:00Z,28.4073,-96.7122,0.0,2.7,139.0,3.1,'11111222,11111222,11111222' 
TCOON,ioos:station:TCOON:031:1,2017-09-01T03:06:00Z,28.4073,-96.7122,0.0,3.1,148.0,3.9,'11111222,11111222,11111222' 
TCOON,ioos:station:TCOON:031:1,2017-09-01T03:12:00Z,28.4073,-96.7122,0.0,3.0,155.0,3.5,'11111222,11111222,11111222' 
TCOON,ioos:station:TCOON:031:1,2017-09-01T03:18:00Z,28.4073,-96.7122,0.0,3.0,155.0,3.5,'1111122,1111122,1111122' 
TCOON,ioos:station:TCOON:031:1,2017-09-01T03:24:00Z,28.4073,-96.7122,0.0,3.7,162.0,4.3,'11111222,11111222,11111222' 
TCOON,ioos:station:TCOON:031:1,2017-09-01T03:30:00Z,28.4073,-96.7122,0.0,4.3,160.0,4.6,'11111222,11111222,11111222' 
TCOON,ioos:station:TCOON:031:1,2017-09-01T03:36:00Z,28.4073,-96.7122,0.0,4.4,163.0,5.3,'11111222,11111222,11111222' 
TCOON,ioos:station:TCOON:031:1,2017-09-01T03:42:00Z,28.4073,-96.7122,0.0,4.0,160.0,4.8,'11111222,11111222,11111222' 
TCOON,ioos:station:TCOON:031:1,2017-09-01T03:48:00Z,28.4073,-96.7122,0.0,4.4,166.0,5.5,'11111222,11111222,11111222' 
TCOON,ioos:station:TCOON:031:1,2017-09-01T03:54:00Z,28.4073,-96.7122,0.0,4.6,164.0,5.1,'11111222,11111222,11111222' 
TCOON,ioos:station:TCOON:031:1,2017-09-01T04:00:00Z,28.4073,-96.7122,0.0,4.5,167.0,5.2,'11111222,11111222,11111222' 
TCOON,ioos:station:TCOON:031:1,2017-09-01T04:06:00Z,28.4073,-96.7122,0.0,4.6,162.0,5.0,'11111222,11111222,11111222' 
TCOON,ioos:station:TCOON:031:1,2017-09-01T04:12:00Z,28.4073,-96.7122,0.0,4.4,162.0,5.1,'11111222,11111222,11111222' 
TCOON,ioos:station:TCOON:031:1,2017-09-01T04:18:00Z,28.4073,-96.7122,0.0,4.4,162.0,5.1,'1111122,1111122,1111122' 
TCOON,ioos:station:TCOON:031:1,2017-09-01T04:24:00Z,28.4073,-96.7122,0.0,4.2,158.0,5.2,'11111222,11111222,11111222' 
TCOON,ioos:station:TCOON:031:1,2017-09-01T04:30:00Z,28.4073,-96.7122,0.0,4.1,158.0,4.9,'11111222,11111222,11111222' 
TCOON,ioos:station:TCOON:031:1,2017-09-01T04:36:00Z,28.4073,-96.7122,0.0,4.3,155.0,5.0,'11111222,11111222,11111222' 
TCOON,ioos:station:TCOON:031:1,2017-09-01T04:42:00Z,28.4073,-96.7122,0.0,4.3,161.0,4.8,'11111222,11111222,11111222' 
TCOON,ioos:station:TCOON:031:1,2017-09-01T04:48:00Z,28.4073,-96.7122,0.0,4.1,164.0,5.0,'11111222,11111222,11111222' 
TCOON,ioos:station:TCOON:031:1,2017-09-01T04:54:00Z,28.4073,-96.7122,0.0,4.1,166.0,4.7,'11111222,11111222,11111222' 
TCOON,ioos:station:TCOON:031:1,2017-09-01T05:00:00Z,28.4073,-96.7122,0.0,4.1,165.0,4.5,'11111222,11111222,11111222' 
TCOON,ioos:station:TCOON:031:1,2017-09-01T05:06:00Z,28.4073,-96.7122,0.0,3.9,169.0,4.8,'11111222,11111222,11111222' 
TCOON,ioos:station:TCOON:031:1,2017-09-01T05:12:00Z,28.4073,-96.7122,0.0,3.7,167.0,4.4,'11111222,11111222,11111222' 
TCOON,ioos:station:TCOON:031:1,2017-09-01T05:18:00Z,28.4073,-96.7122,0.0,3.7,167.0,4.4,'1111122,1111122,1111122' 
TCOON,ioos:station:TCOON:031:1,2017-09-01T05:24:00Z,28.4073,-96.7122,0.0,3.5,167.0,4.2,'11111222,11111222,11111222' 
TCOON,ioos:station:TCOON:031:1,2017-09-01T05:30:00Z,28.4073,-96.7122,0.0,3.6,168.0,4.3,'11111222,11111222,11111222' 
TCOON,ioos:station:TCOON:031:1,2017-09-01T05:36:00Z,28.4073,-96.7122,0.0,3.4,168.0,3.9,'11111222,11111222,11111222' 
TCOON,ioos:station:TCOON:031:1,2017-09-01T05:42:00Z,28.4073,-96.7122,0.0,3.2,168.0,3.7,'11111222,11111222,11111222' 
TCOON,ioos:station:TCOON:031:1,2017-09-01T05:48:00Z,28.4073,-96.7122,0.0,2.9,167.0,3.5,'11111222,11111222,11111222' 
TCOON,ioos:station:TCOON:031:1,2017-09-01T05:54:00Z,28.4073,-96.7122,0.0,3.2,169.0,3.4,'11111222,11111222,11111222' 
TCOON,ioos:station:TCOON:031:1,2017-09-01T06:00:00Z,28.4073,-96.7122,0.0,3.0,169.0,3.7,'11111222,11111222,11111222' 
TCOON,ioos:station:TCOON:031:1,2017-09-01T06:06:00Z,28.4073,-96.7122,0.0,2.9,173.0,3.8,'11111222,11111222,11111222' 
TCOON,ioos:station:TCOON:031:1,2017-09-01T06:12:00Z,28.4073,-96.7122,0.0,2.9,170.0,3.6,'11111222,11111222,11111222' 
TCOON,ioos:station:TCOON:031:1,2017-09-01T06:18:00Z,28.4073,-96.7122,0.0,2.9,170.0,3.6,'1111122,1111122,1111122' 
TCOON,ioos:station:TCOON:031:1,2017-09-01T06:24:00Z,28.4073,-96.7122,0.0,2.2,176.0,2.8,'11111222,11111222,11111222' 
TCOON,ioos:station:TCOON:031:1,2017-09-01T06:30:00Z,28.4073,-96.7122,0.0,2.5,177.0,2.8,'11111222,11111222,11111222' 
TCOON,ioos:station:TCOON:031:1,2017-09-01T06:36:00Z,28.4073,-96.7122,0.0,2.5,176.0,2.8,'11111222,11111222,11111222' 
TCOON,ioos:station:TCOON:031:1,2017-09-01T06:42:00Z,28.4073,-96.7122,0.0,2.7,173.0,3.1,'11111222,11111222,11111222' 
TCOON,ioos:station:TCOON:031:1,2017-09-01T06:48:00Z,28.4073,-96.7122,0.0,2.6,172.0,3.0,'11111222,11111222,11111222' 
TCOON,ioos:station:TCOON:031:1,2017-09-01T06:54:00Z,28.4073,-96.7122,0.0,2.4,169.0,2.7,'11111222,11111222,11111222' 
TCOON,ioos:station:TCOON:031:1,2017-09-01T07:00:00Z,28.4073,-96.7122,0.0,2.3,166.0,2.9,'11111222,11111222,11111222' 
TCOON,ioos:station:TCOON:031:1,2017-09-01T07:06:00Z,28.4073,-96.7122,0.0,2.4,172.0,2.6,'11111222,11111222,11111222' 
TCOON,ioos:station:TCOON:031:1,2017-09-01T07:12:00Z,28.4073,-96.7122,0.0,2.6,171.0,2.9,'11111222,11111222,11111222' 
TCOON,ioos:station:TCOON:031:1,2017-09-01T07:18:00Z,28.4073,-96.7122,0.0,2.6,171.0,2.9,'1111122,1111122,1111122' 
TCOON,ioos:station:TCOON:031:1,2017-09-01T07:24:00Z,28.4073,-96.7122,0.0,2.3,176.0,2.7,'11111222,11111222,11111222' 
TCOON,ioos:station:TCOON:031:1,2017-09-01T07:30:00Z,28.4073,-96.7122,0.0,2.6,168.0,2.8,'11111222,11111222,11111222' 
TCOON,ioos:station:TCOON:031:1,2017-09-01T07:36:00Z,28.4073,-96.7122,0.0,2.2,169.0,2.7,'11111222,11111222,11111222' 
TCOON,ioos:station:TCOON:031:1,2017-09-01T07:42:00Z,28.4073,-96.7122,0.0,2.3,169.0,2.8,'11111222,11111222,11111222' 
TCOON,ioos:station:TCOON:031:1,2017-09-01T07:48:00Z,28.4073,-96.7122,0.0,2.3,173.0,2.9,'11111222,11111222,11111222' 
TCOON,ioos:station:TCOON:031:1,2017-09-01T07:54:00Z,28.4073,-96.7122,0.0,2.3,173.0,2.6,'11111222,11111222,11111222' 
TCOON,ioos:station:TCOON:031:1,2017-09-01T08:00:00Z,28.4073,-96.7122,0.0,2.4,174.0,2.8,'11111222,11111222,11111222' 
TCOON,ioos:station:TCOON:031:1,2017-09-01T08:06:00Z,28.4073,-96.7122,0.0,2.5,173.0,3.0,'11111222,11111222,11111222' 
TCOON,ioos:station:TCOON:031:1,2017-09-01T08:12:00Z,28.4073,-96.7122,0.0,2.2,180.0,2.8,'11111222,11111222,11111222' 
TCOON,ioos:station:TCOON:031:1,2017-09-01T08:18:00Z,28.4073,-96.7122,0.0,2.2,180.0,2.8,'1111122,1111122,1111122' 
TCOON,ioos:station:TCOON:031:1,2017-09-01T08:24:00Z,28.4073,-96.7122,0.0,2.0,187.0,2.7,'11111222,11111222,11111222' 
TCOON,ioos:station:TCOON:031:1,2017-09-01T08:30:00Z,28.4073,-96.7122,0.0,2.0,189.0,2.3,'11111222,11111222,11111222' 
TCOON,ioos:station:TCOON:031:1,2017-09-01T08:36:00Z,28.4073,-96.7122,0.0,2.2,187.0,2.5,'11111222,11111222,11111222' 
TCOON,ioos:station:TCOON:031:1,2017-09-01T08:42:00Z,28.4073,-96.7122,0.0,2.4,185.0,2.7,'11111222,11111222,11111222' 
TCOON,ioos:station:TCOON:031:1,2017-09-01T08:48:00Z,28.4073,-96.7122,0.0,2.5,184.0,2.9,'11111222,11111222,11111222' 
TCOON,ioos:station:TCOON:031:1,2017-09-01T08:54:00Z,28.4073,-96.7122,0.0,2.6,184.0,3.0,'11111222,11111222,11111222' 
TCOON,ioos:station:TCOON:031:1,2017-09-01T09:00:00Z,28.4073,-96.7122,0.0,2.1,182.0,2.7,'11111222,11111222,11111222' 
TCOON,ioos:station:TCOON:031:1,2017-09-01T09:06:00Z,28.4073,-96.7122,0.0,2.3,182.0,2.8,'11111222,11111222,11111222' 
TCOON,ioos:station:TCOON:031:1,2017-09-01T09:12:00Z,28.4073,-96.7122,0.0,2.3,185.0,2.8,'11111222,11111222,11111222' 
TCOON,ioos:station:TCOON:031:1,2017-09-01T09:18:00Z,28.4073,-96.7122,0.0,2.5,179.0,2.8,'11111222,11111222,11111222' 
TCOON,ioos:station:TCOON:031:1,2017-09-01T09:24:00Z,28.4073,-96.7122,0.0,2.5,179.0,2.8,'1111122,1111122,1111122' 
TCOON,ioos:station:TCOON:031:1,2017-09-01T09:30:00Z,28.4073,-96.7122,0.0,2.3,183.0,2.6,'11111222,11111222,11111222' 
TCOON,ioos:station:TCOON:031:1,2017-09-01T09:36:00Z,28.4073,-96.7122,0.0,2.4,180.0,2.9,'11111222,11111222,11111222' 
TCOON,ioos:station:TCOON:031:1,2017-09-01T09:42:00Z,28.4073,-96.7122,0.0,2.3,180.0,2.6,'11111222,11111222,11111222' 
TCOON,ioos:station:TCOON:031:1,2017-09-01T09:48:00Z,28.4073,-96.7122,0.0,2.2,182.0,2.7,'11111222,11111222,11111222' 
TCOON,ioos:station:TCOON:031:1,2017-09-01T09:54:00Z,28.4073,-96.7122,0.0,2.4,179.0,2.7,'11111222,11111222,11111222' 
TCOON,ioos:station:TCOON:031:1,2017-09-01T10:00:00Z,28.4073,-96.7122,0.0,2.4,178.0,2.7,'11111222,11111222,11111222' 
TCOON,ioos:station:TCOON:031:1,2017-09-01T10:06:00Z,28.4073,-96.7122,0.0,2.3,179.0,2.7,'11111222,11111222,11111222' 
TCOON,ioos:station:TCOON:031:1,2017-09-01T10:12:00Z,28.4073,-96.7122,0.0,2.6,179.0,2.8,'11111222,11111222,11111222' 
TCOON,ioos:station:TCOON:031:1,2017-09-01T10:18:00Z,28.4073,-96.7122,0.0,2.6,179.0,2.8,'1111122,1111122,1111122' 
TCOON,ioos:station:TCOON:031:1,2017-09-01T10:24:00Z,28.4073,-96.7122,0.0,2.5,182.0,2.8,'11111222,11111222,11111222' 
TCOON,ioos:station:TCOON:031:1,2017-09-01T10:30:00Z,28.4073,-96.7122,0.0,2.7,186.0,3.0,'11111222,11111222,11111222' 
TCOON,ioos:station:TCOON:031:1,2017-09-01T10:36:00Z,28.4073,-96.7122,0.0,2.6,186.0,3.0,'11111222,11111222,11111222' 
TCOON,ioos:station:TCOON:031:1,2017-09-01T10:42:00Z,28.4073,-96.7122,0.0,2.8,187.0,3.0,'11111222,11111222,11111222' 
TCOON,ioos:station:TCOON:031:1,2017-09-01T10:48:00Z,28.4073,-96.7122,0.0,2.5,187.0,2.9,'11111222,11111222,11111222' 
TCOON,ioos:station:TCOON:031:1,2017-09-01T10:54:00Z,28.4073,-96.7122,0.0,2.5,193.0,3.1,'11111222,11111222,11111222' 
TCOON,ioos:station:TCOON:031:1,2017-09-01T11:00:00Z,28.4073,-96.7122,0.0,2.8,189.0,3.1,'11111222,11111222,11111222' 
TCOON,ioos:station:TCOON:031:1,2017-09-01T11:06:00Z,28.4073,-96.7122,0.0,2.6,192.0,3.0,'11111222,11111222,11111222' 
TCOON,ioos:station:TCOON:031:1,2017-09-01T11:12:00Z,28.4073,-96.7122,0.0,2.6,190.0,3.0,'11111222,11111222,11111222' 
TCOON,ioos:station:TCOON:031:1,2017-09-01T11:18:00Z,28.4073,-96.7122,0.0,2.6,190.0,3.0,'1111122,1111122,1111122' 
TCOON,ioos:station:TCOON:031:1,2017-09-01T11:24:00Z,28.4073,-96.7122,0.0,2.1,200.0,2.8,'11111222,11111222,11111222' 
TCOON,ioos:station:TCOON:031:1,2017-09-01T11:30:00Z,28.4073,-96.7122,0.0,2.1,203.0,2.4,'11111222,11111222,11111222' 
TCOON,ioos:station:TCOON:031:1,2017-09-01T11:36:00Z,28.4073,-96.7122,0.0,1.9,203.0,2.2,'11111222,11111222,11111222' 
TCOON,ioos:station:TCOON:031:1,2017-09-01T11:42:00Z,28.4073,-96.7122,0.0,1.5,200.0,2.1,'11111222,11111222,11111222' 
TCOON,ioos:station:TCOON:031:1,2017-09-01T11:48:00Z,28.4073,-96.7122,0.0,1.0,203.0,1.8,'11111222,11111222,11111222' 
TCOON,ioos:station:TCOON:031:1,2017-09-01T11:54:00Z,28.4073,-96.7122,0.0,0.5,214.0,0.9,'11111222,11111222,11111222' 
TCOON,ioos:station:TCOON:031:1,2017-09-01T12:00:00Z,28.4073,-96.7122,0.0,1.7,352.0,2.1,'11111222,11111222,11111222' 
TCOON,ioos:station:TCOON:031:1,2017-09-01T12:06:00Z,28.4073,-96.7122,0.0,1.3,359.0,2.0,'11111222,11111222,11111222' 
TCOON,ioos:station:TCOON:031:1,2017-09-01T12:12:00Z,28.4073,-96.7122,0.0,1.3,1.0,1.6,'11111222,11111222,11111222' 
TCOON,ioos:station:TCOON:031:1,2017-09-01T12:18:00Z,28.4073,-96.7122,0.0,1.3,1.0,1.6,'1111122,1111122,1111122' 
TCOON,ioos:station:TCOON:031:1,2017-09-01T12:24:00Z,28.4073,-96.7122,0.0,1.7,2.0,2.2,'11111222,11111222,11111222' 
TCOON,ioos:station:TCOON:031:1,2017-09-01T12:30:00Z,28.4073,-96.7122,0.0,1.8,5.0,2.2,'11111222,11111222,11111222' 
TCOON,ioos:station:TCOON:031:1,2017-09-01T12:36:00Z,28.4073,-96.7122,0.0,1.4,2.0,2.0,'11111222,11111222,11111222' 
TCOON,ioos:station:TCOON:031:1,2017-09-01T12:42:00Z,28.4073,-96.7122,0.0,1.4,4.0,1.8,'11111222,11111222,11111222' 
TCOON,ioos:station:TCOON:031:1,2017-09-01T12:48:00Z,28.4073,-96.7122,0.0,1.6,2.0,2.2,'11111222,11111222,11111222' 
TCOON,ioos:station:TCOON:031:1,2017-09-01T12:54:00Z,28.4073,-96.7122,0.0,1.7,6.0,1.9,'11111222,11111222,11111222' 
TCOON,ioos:station:TCOON:031:1,2017-09-01T13:00:00Z,28.4073,-96.7122,0.0,1.3,13.0,2.2,'11111222,11111222,11111222' 
TCOON,ioos:station:TCOON:031:1,2017-09-01T13:06:00Z,28.4073,-96.7122,0.0,1.7,6.0,2.0,'11111222,11111222,11111222' 
TCOON,ioos:station:TCOON:031:1,2017-09-01T13:12:00Z,28.4073,-96.7122,0.0,1.4,10.0,2.1,'11111222,11111222,11111222' 
TCOON,ioos:station:TCOON:031:1,2017-09-01T13:18:00Z,28.4073,-96.7122,0.0,1.4,10.0,2.1,'1111122,1111122,1111122' 
TCOON,ioos:station:TCOON:031:1,2017-09-01T13:24:00Z,28.4073,-96.7122,0.0,1.3,8.0,2.0,'11111222,11111222,11111222' 
TCOON,ioos:station:TCOON:031:1,2017-09-01T13:30:00Z,28.4073,-96.7122,0.0,1.6,7.0,1.9,'11111222,11111222,11111222' 
TCOON,ioos:station:TCOON:031:1,2017-09-01T13:36:00Z,28.4073,-96.7122,0.0,1.4,4.0,1.9,'11111222,11111222,11111222' 
TCOON,ioos:station:TCOON:031:1,2017-09-01T13:42:00Z,28.4073,-96.7122,0.0,1.4,20.0,1.7,'11111222,11111222,11111222' 
TCOON,ioos:station:TCOON:031:1,2017-09-01T13:48:00Z,28.4073,-96.7122,0.0,1.1,21.0,1.7,'11111222,11111222,11111222' 
TCOON,ioos:station:TCOON:031:1,2017-09-01T13:54:00Z,28.4073,-96.7122,0.0,1.7,17.0,2.0,'11111222,11111222,11111222' 
TCOON,ioos:station:TCOON:031:1,2017-09-01T14:00:00Z,28.4073,-96.7122,0.0,2.1,9.0,2.5,'11111222,11111222,11111222' 
TCOON,ioos:station:TCOON:031:1,2017-09-01T14:06:00Z,28.4073,-96.7122,0.0,2.3,17.0,2.7,'11111222,11111222,11111222' 
TCOON,ioos:station:TCOON:031:1,2017-09-01T14:12:00Z,28.4073,-96.7122,0.0,1.8,2.0,2.3,'11111222,11111222,11111222' 
TCOON,ioos:station:TCOON:031:1,2017-09-01T14:18:00Z,28.4073,-96.7122,0.0,1.8,2.0,2.3,'1111122,1111122,1111122' 
TCOON,ioos:station:TCOON:031:1,2017-09-01T14:24:00Z,28.4073,-96.7122,0.0,0.0,36.0,1.0,'11111222,11111222,11111222' 
TCOON,ioos:station:TCOON:031:1,2017-09-01T14:30:00Z,28.4073,-96.7122,0.0,0.0,53.0,0.0,'11111222,11111222,11111222' 
TCOON,ioos:station:TCOON:031:1,2017-09-01T14:36:00Z,28.4073,-96.7122,0.0,0.0,107.0,0.0,'11111222,11111222,11111222' 
TCOON,ioos:station:TCOON:031:1,2017-09-01T14:42:00Z,28.4073,-96.7122,0.0,0.0,112.0,0.0,'11111222,11111222,11111222' 
TCOON,ioos:station:TCOON:031:1,2017-09-01T14:48:00Z,28.4073,-96.7122,0.0,0.0,115.0,0.0,'11111222,11111222,11111222' 
TCOON,ioos:station:TCOON:031:1,2017-09-01T14:54:00Z,28.4073,-96.7122,0.0,0.0,145.0,0.0,'11111222,11111222,11111222' 
TCOON,ioos:station:TCOON:031:1,2017-09-01T15:00:00Z,28.4073,-96.7122,0.0,0.0,145.0,0.0,'11111222,11111222,11111222' 
TCOON,ioos:station:TCOON:031:1,2017-09-01T15:06:00Z,28.4073,-96.7122,0.0,0.0,145.0,0.0,'11111222,11111222,11111222' 
TCOON,ioos:station:TCOON:031:1,2017-09-01T15:12:00Z,28.4073,-96.7122,0.0,0.0,167.0,0.0,'11111222,11111222,11111222' 
TCOON,ioos:station:TCOON:031:1,2017-09-01T15:18:00Z,28.4073,-96.7122,0.0,0.0,167.0,0.0,'1114422,1111122,1114422' 
TCOON,ioos:station:TCOON:031:1,2017-09-01T15:24:00Z,28.4073,-96.7122,0.0,0.0,186.0,0.0,'11111222,11111222,11111222' 
TCOON,ioos:station:TCOON:031:1,2017-09-01T15:30:00Z,28.4073,-96.7122,0.0,0.0,176.0,0.0,'11111222,11111222,11111222' 
TCOON,ioos:station:TCOON:031:1,2017-09-01T15:36:00Z,28.4073,-96.7122,0.0,0.0,200.0,0.0,'11111222,11111222,11111222' 
TCOON,ioos:station:TCOON:031:1,2017-09-01T15:42:00Z,28.4073,-96.7122,0.0,0.0,204.0,0.0,'11111222,11111222,11111222' 
TCOON,ioos:station:TCOON:031:1,2017-09-01T15:48:00Z,28.4073,-96.7122,0.0,1.1,184.0,1.5,'11111222,11111222,11111222' 
TCOON,ioos:station:TCOON:031:1,2017-09-01T15:54:00Z,28.4073,-96.7122,0.0,0.8,197.0,1.3,'11111222,11111222,11111222' 
TCOON,ioos:station:TCOON:031:1,2017-09-01T16:00:00Z,28.4073,-96.7122,0.0,0.8,220.0,1.1,'11111222,11111222,11111222' 
TCOON,ioos:station:TCOON:031:1,2017-09-01T16:06:00Z,28.4073,-96.7122,0.0,1.0,203.0,1.3,'11111222,11111222,11111222' 
TCOON,ioos:station:TCOON:031:1,2017-09-01T16:12:00Z,28.4073,-96.7122,0.0,1.1,197.0,1.3,'11111222,11111222,11111222' 
TCOON,ioos:station:TCOON:031:1,2017-09-01T16:18:00Z,28.4073,-96.7122,0.0,1.1,197.0,1.3,'1111122,1111122,1111122' 
TCOON,ioos:station:TCOON:031:1,2017-09-01T16:24:00Z,28.4073,-96.7122,0.0,0.9,206.0,1.5,'11111222,11111222,11111222' 
TCOON,ioos:station:TCOON:031:1,2017-09-01T16:30:00Z,28.4073,-96.7122,0.0,0.9,207.0,1.3,'11111222,11111222,11111222' 
TCOON,ioos:station:TCOON:031:1,2017-09-01T16:36:00Z,28.4073,-96.7122,0.0,1.1,209.0,1.5,'11111222,11111222,11111222' 
TCOON,ioos:station:TCOON:031:1,2017-09-01T16:42:00Z,28.4073,-96.7122,0.0,1.4,213.0,1.8,'11111222,11111222,11111222' 
TCOON,ioos:station:TCOON:031:1,2017-09-01T16:48:00Z,28.4073,-96.7122,0.0,1.9,217.0,2.3,'11111222,11111222,11111222' 
TCOON,ioos:station:TCOON:031:1,2017-09-01T16:54:00Z,28.4073,-96.7122,0.0,2.1,203.0,2.6,'11111222,11111222,11111222' 
TCOON,ioos:station:TCOON:031:1,2017-09-01T17:00:00Z,28.4073,-96.7122,0.0,2.3,202.0,2.6,'11111222,11111222,11111222' 
TCOON,ioos:station:TCOON:031:1,2017-09-01T17:06:00Z,28.4073,-96.7122,0.0,2.4,206.0,2.8,'11111222,11111222,11111222' 
TCOON,ioos:station:TCOON:031:1,2017-09-01T17:12:00Z,28.4073,-96.7122,0.0,2.5,199.0,3.0,'11111222,11111222,11111222' 
TCOON,ioos:station:TCOON:031:1,2017-09-01T17:18:00Z,28.4073,-96.7122,0.0,2.5,199.0,3.0,'1111122,1111122,1111122' 
TCOON,ioos:station:TCOON:031:1,2017-09-01T17:24:00Z,28.4073,-96.7122,0.0,2.7,199.0,3.1,'11111222,11111222,11111222' 
TCOON,ioos:station:TCOON:031:1,2017-09-01T17:30:00Z,28.4073,-96.7122,0.0,2.3,200.0,3.2,'11111222,11111222,11111222' 
TCOON,ioos:station:TCOON:031:1,2017-09-01T17:36:00Z,28.4073,-96.7122,0.0,2.9,186.0,3.1,'11111222,11111222,11111222' 
TCOON,ioos:station:TCOON:031:1,2017-09-01T17:42:00Z,28.4073,-96.7122,0.0,2.9,186.0,4.1,'11111222,11111222,11111222' 
TCOON,ioos:station:TCOON:031:1,2017-09-01T17:48:00Z,28.4073,-96.7122,0.0,3.6,178.0,4.1,'11111222,11111222,11111222' 
TCOON,ioos:station:TCOON:031:1,2017-09-01T17:54:00Z,28.4073,-96.7122,0.0,3.9,172.0,4.7,'11111222,11111222,11111222' 
TCOON,ioos:station:TCOON:031:1,2017-09-01T18:00:00Z,28.4073,-96.7122,0.0,4.2,179.0,4.8,'11111222,11111222,11111222' 
TCOON,ioos:station:TCOON:031:1,2017-09-01T18:06:00Z,28.4073,-96.7122,0.0,3.7,183.0,4.7,'11111222,11111222,11111222' 
TCOON,ioos:station:TCOON:031:1,2017-09-01T18:12:00Z,28.4073,-96.7122,0.0,3.0,193.0,3.9,'11111222,11111222,11111222' 
TCOON,ioos:station:TCOON:031:1,2017-09-01T18:18:00Z,28.4073,-96.7122,0.0,3.0,193.0,3.9,'1111122,1111122,1111122' 
TCOON,ioos:station:TCOON:031:1,2017-09-01T18:24:00Z,28.4073,-96.7122,0.0,3.6,189.0,4.1,'11111222,11111222,11111222' 
TCOON,ioos:station:TCOON:031:1,2017-09-01T18:30:00Z,28.4073,-96.7122,0.0,3.2,188.0,3.8,'11111222,11111222,11111222' 
TCOON,ioos:station:TCOON:031:1,2017-09-01T18:36:00Z,28.4073,-96.7122,0.0,3.4,183.0,4.1,'11111222,11111222,11111222' 
TCOON,ioos:station:TCOON:031:1,2017-09-01T18:42:00Z,28.4073,-96.7122,0.0,3.3,162.0,4.2,'11111222,11111222,11111222' 
TCOON,ioos:station:TCOON:031:1,2017-09-01T18:48:00Z,28.4073,-96.7122,0.0,4.8,81.0,5.8,'11111222,11111222,11111222' 
TCOON,ioos:station:TCOON:031:1,2017-09-01T18:54:00Z,28.4073,-96.7122,0.0,6.3,79.0,8.6,'11111222,11111222,11111222' 
TCOON,ioos:station:TCOON:031:1,2017-09-01T19:00:00Z,28.4073,-96.7122,0.0,5.8,82.0,8.3,'11111222,11111222,11111222' 
TCOON,ioos:station:TCOON:031:1,2017-09-01T19:06:00Z,28.4073,-96.7122,0.0,4.3,75.0,6.8,'11111222,11111222,11111222' 
TCOON,ioos:station:TCOON:031:1,2017-09-01T19:12:00Z,28.4073,-96.7122,0.0,3.5,67.0,5.8,'11111222,11111222,11111222' 
TCOON,ioos:station:TCOON:031:1,2017-09-01T19:18:00Z,28.4073,-96.7122,0.0,3.5,67.0,5.8,'1111122,1111122,1111122' 
TCOON,ioos:station:TCOON:031:1,2017-09-01T19:24:00Z,28.4073,-96.7122,0.0,3.6,120.0,4.4,'11111222,11111222,11111222' 
TCOON,ioos:station:TCOON:031:1,2017-09-01T19:30:00Z,28.4073,-96.7122,0.0,5.0,141.0,5.5,'11111222,11111222,11111222' 
TCOON,ioos:station:TCOON:031:1,2017-09-01T19:36:00Z,28.4073,-96.7122,0.0,6.1,141.0,7.5,'11111222,11111222,11111222' 
TCOON,ioos:station:TCOON:031:1,2017-09-01T19:42:00Z,28.4073,-96.7122,0.0,5.5,120.0,7.2,'11111222,11111222,11111222' 
TCOON,ioos:station:TCOON:031:1,2017-09-01T19:48:00Z,28.4073,-96.7122,0.0,6.2,130.0,7.1,'11111222,11111222,11111222' 
TCOON,ioos:station:TCOON:031:1,2017-09-01T19:54:00Z,28.4073,-96.7122,0.0,6.0,135.0,7.5,'11111222,11111222,11111222' 
TCOON,ioos:station:TCOON:031:1,2017-09-01T20:00:00Z,28.4073,-96.7122,0.0,6.4,127.0,7.8,'11111222,11111222,11111222' 
TCOON,ioos:station:TCOON:031:1,2017-09-01T20:06:00Z,28.4073,-96.7122,0.0,5.8,118.0,8.3,'11111222,11111222,11111222' 
TCOON,ioos:station:TCOON:031:1,2017-09-01T20:12:00Z,28.4073,-96.7122,0.0,5.2,122.0,6.9,'11111222,11111222,11111222' 
TCOON,ioos:station:TCOON:031:1,2017-09-01T20:18:00Z,28.4073,-96.7122,0.0,5.2,122.0,6.9,'1111122,1111122,1111122' 
TCOON,ioos:station:TCOON:031:1,2017-09-01T20:24:00Z,28.4073,-96.7122,0.0,4.6,122.0,5.4,'11111222,11111222,11111222' 